#timestamp,LO_Frequency,Hit,StdDev 
1459868415.4,286046998.9,N
1459868435.2,286046996.9,N
1459868455.0,286046995.6,N
1459868455.9,286046995.6,N
1459868475.8,286046997.7,N
1459868495.6,286046995.0,N
1459868515.4,286046998.0,N
1459868535.3,286046997.2,N
1459868555.1,286046997.4,N
1459868556.0,286046997.4,N
1459868575.8,286046995.0,N
1459868595.6,286046996.5,N
1459868615.5,286046996.9,N
1459868635.3,286046996.9,N
1459868655.1,286046999.6,N
1459868675.9,286046998.7,N
1459868695.7,286046999.6,N
1459868715.5,286046998.5,N
1459868735.4,286047002.3,N
1459868755.2,286047002.1,N
1459868775.0,286047002.0,N
1459868775.9,286047002.0,N
1459868795.8,286047001.9,N
1459868815.6,286047004.3,N
1459868835.4,286047003.7,N
1459868855.3,286047003.0,N
1459868875.1,286047005.9,N
1459868876.0,286047005.9,N
1459868895.8,286047002.9,N
1459868915.7,286047005.4,N
1459868935.5,286047005.9,N
1459868955.3,286047005.1,N
1459868975.1,286047007.0,N
1459868995.9,286047006.7,N
1459869015.7,286047006.8,N
1459869035.5,286047008.4,N
1459869055.4,286047009.5,N
1459869075.2,286047010.1,N
1459869095.0,286047015.2,Y
1459869095.9,286047015.2,P
1459869115.8,286047009.3,N
1459869135.6,286047010.0,N
1459869155.4,286047009.4,N
1459869175.3,286047011.5,N
1459869195.1,286047009.4,N
1459869196.0,286047009.4,N
1459869215.8,286047009.6,N
1459869235.7,286047011.3,Y
1459869255.5,286047004.2,P
1459869275.3,286047003.6,N
1459869295.2,286047003.8,N
1459869315.9,286047004.2,N
1459869335.7,286047002.2,N
1459869355.6,286047004.0,N
1459869375.4,286047004.4,N
1459869395.2,286047002.6,N
1459869415.1,286047003.6,N
1459869416.0,286047003.6,N
1459869435.8,286047001.8,N
1459869455.6,286047004.1,N
1459869475.4,286047004.4,N
1459869495.3,286047003.6,N
1459869515.1,286047004.1,N
1459869535.8,286047005.0,Y
1459869555.7,286047003.6,P
1459869575.5,286047003.7,P
1459869595.3,286047003.4,P
1459869615.2,286047001.4,Y
1459869635.0,286047004.1,P
1459869635.9,286047004.1,P
1459869655.7,286047003.8,P
1459869675.6,286047001.5,Y
1459869695.4,286046998.8,P
1459869715.2,286046999.5,N
1459869735.1,286046999.4,N
1459869736.0,286046999.4,N
1459869755.8,286046999.6,N
1459869775.6,286046996.8,N
1459869795.5,286046997.1,N
1459869815.3,286046999.6,N
1459869835.2,286046996.7,N
1459869855.9,286047001.2,N
1459869875.7,286047002.6,N
1459869895.6,286047001.9,N
1459869915.4,286047006.0,N
1459869935.2,286047004.4,N
1459869955.1,286047003.1,N
1459869956.0,286047003.1,N
1459869975.8,286047004.3,N
1459869995.6,286047004.4,N
1459870015.4,286047002.1,N
1459870035.3,286046999.7,N
1459870055.1,286047002.2,N
1459870075.8,286047003.3,N
1459870095.7,286047003.3,N
1459870115.5,286047004.9,N
1459870135.3,286047004.6,N
1459870155.2,286047004.8,N
1459870175.9,286047005.4,N
1459870195.7,286047007.3,N
1459870215.6,286047008.5,N
1459870235.4,286047006.6,N
1459870255.2,286047008.5,N
1459870275.1,286047007.9,N
1459870276.0,286047007.9,N
1459870295.8,286047007.9,N
1459870315.6,286047008.3,N
1459870335.5,286047008.4,N
1459870355.3,286047010.2,Y
1459870375.1,286047006.7,P
1459870395.9,286047006.9,P
1459870415.7,286047006.1,P
1459870435.5,286047006.9,Y
1459870455.4,286047000.9,P
1459870475.2,286047003.9,N
1459870495.0,286047000.1,N
1459870495.9,286047000.1,N
1459870515.8,286047001.8,N
1459870535.6,286047001.8,N
1459870555.4,286047006.0,N
1459870575.2,286047006.0,N
1459870595.1,286047005.2,N
1459870596.0,286047005.2,N
1459870615.8,286047005.7,N
1459870635.6,286047005.2,N
1459870655.5,286047001.9,N
1459870675.3,286047007.1,Y
1459870695.1,286047004.0,P
1459870715.9,286047001.5,P
1459870735.7,286047003.0,N
1459870755.5,286047001.9,N
1459870775.4,286047001.6,N
1459870795.2,286047000.9,N
1459870815.0,286047001.0,N
1459870815.9,286047001.0,N
1459870835.8,286046998.6,N
1459870855.6,286047000.9,N
1459870875.4,286047000.6,N
1459870895.3,286047000.3,N
1459870915.1,286047000.1,N
1459870916.0,286047000.1,N
1459870935.8,286046999.7,N
1459870955.7,286047002.6,N
1459870975.5,286047002.5,N
1459870995.3,286047000.3,N
1459871015.1,286046999.1,N
1459871035.9,286047000.5,N
1459871055.7,286047000.7,N
1459871075.5,286047001.2,N
1459871095.4,286047000.6,N
1459871115.2,286047001.1,N
1459871135.0,286046996.5,N
1459871135.9,286046996.5,N
1459871155.8,286046999.3,N
1459871175.6,286046998.7,N
1459871195.4,286046997.2,N
1459871215.3,286046997.2,N
1459871235.1,286046996.7,N
1459871236.0,286046996.7,N
1459871255.8,286046996.7,N
1459871275.7,286046999.3,N
1459871295.5,286047000.5,N
1459871315.3,286047001.1,N
1459871335.1,286046997.5,N
1459871355.9,286046996.9,N
1459871375.7,286046995.0,N
1459871395.5,286046995.3,N
1459871415.4,286046999.5,N
1459871435.2,286047001.1,N
1459871455.0,286047000.3,N
1459871455.9,286047000.3,N
1459871475.8,286047000.6,N
1459871495.6,286046999.8,N
1459871515.4,286046998.1,N
1459871535.3,286046998.4,N
1459871555.1,286047000.0,N
1459871556.0,286047000.0,N
1459871575.8,286047001.7,N
1459871595.7,286047001.5,N
1459871615.5,286047005.8,N
1459871635.3,286047004.5,N
1459871655.2,286047005.9,N
1459871675.9,286047002.9,N
1459871695.7,286047002.9,N
1459871715.6,286047004.9,N
1459871735.4,286047005.9,N
1459871755.2,286047004.1,N
1459871775.0,286047002.9,N
1459871776.0,286047002.9,N
1459871795.8,286047005.8,N
1459871815.6,286047004.7,N
1459871835.4,286047003.0,N
1459871855.3,286047001.9,N
1459871875.1,286047003.6,N
1459871895.8,286047005.6,N
1459871915.7,286047004.1,N
1459871935.5,286047005.3,N
1459871955.3,286047005.9,N
1459871975.2,286047005.4,N
1459871995.9,286047005.9,N
